User: anonymous   Login
Location: Delta State University
(33.7460°N, 90.7320°W)
Time: 20:32:07
(UTC-05:00)
Language:

Iridium 13 - Orbit

View from above orbital plane
View from above orbital plane
View from above satellite
View from above satellite

Ground track
Ground track

The orbit data is extracted from the following two-line orbital elements,

1 24840U 97030E   16238.21220826  .00000120  00000-0  35693-4 0  9993
2 24840  86.3960 113.9707 0002356  83.2174 276.9290 14.34219331  4528
Epoch (UTC): 25 August 2016 05:05:34
Eccentricity: 0.0002356
inclination: 86.3960°
perigee height: 776 km
apogee height: 779 km
right ascension of ascending node: 113.9707°
argument of perigee: 83.2174°
revolutions per day: 14.34219331
mean anomaly at epoch: 276.9290°
orbit number at epoch: 452

The dashed part of the orbit path shows where the satellite is in the earth's shadow,  

DLR